Skip Page Navigation
NASA JPL Caltech
NASA Logo - Jet Propulsion Laboratory + View the NASA Portal
+ Center for Near-Earth Object Studies
JPL Home Earth Solar System Stars & Galaxies Technology
JPL Solar System Dynamics
BODIES ORBITS EPHEMERIDES TOOLS PHYSICAL DATA DISCOVERY FAQ SITE MAP

Significant website upgrade scheduled for September 27. More details available here.

JPL Small-Body Database Browser
Search: [ help ]  
(2012 YO6)
Classification: Centaur          SPK-ID: 3621774
Ephemeris | Orbit Diagram | Orbital Elements | Mission Design | Physical Parameters | Close-Approach Data ]

[ show orbit diagram ]
Orbital Elements at Epoch 2459396.5 (2021-Jul-01.0) TDB
Reference: JPL 4 (heliocentric ecliptic J2000)
 Element Value Uncertainty (1-sigma)   Units 
e .4783775376459118 3.935e-05  
a 6.31292978753291 0.00050811 au
q 3.292965980441387 1.8706e-05 au
i 106.8968605823077 0.00052142 deg
node 260.7192281102861 8.24e-05 deg
peri 145.6863660054765 0.0011866 deg
M 202.9950002159219 0.025023 deg
tp 2461923.212607893097
(2028-May-31.71260789)
0.70775 TDB
period 5793.551416148974
15.86
0.69945
0.001915
d
yr
n .06213805214475775 7.5019e-06 deg/d
Q 9.332893594624432 0.00075117 au
  Orbit Determination Parameters
   # obs. used (total)      47  
   data-arc span      142 days  
   first obs. used      2012-10-15  
   last obs. used      2013-03-06  
   planetary ephem.      DE441  
   SB-pert. ephem.      SB441-N16  
   condition code      4  
   norm. resid. RMS      .53309  
   source      ORB  
   producer      Otto Matic  
   solution date      2021-Apr-15 07:24:39  

Additional Information
 Earth MOID = 2.41293 au 
 Jupiter MOID = 1.57241 au 
 T_jup = 0.262 
[ show covariance matrix ]

Ephemeris | Orbit Diagram | Orbital Elements | Mission Design | Physical Parameters | Close-Approach Data ]

Physical Parameter Table
Parameter Symbol Value Units Sigma Reference Notes
absolute magnitude H 14.7   n/a MPO260830  

[ show close-approach data ]
Ephemeris | Orbit Diagram | Orbital Elements | Mission Design | Physical Parameters | Close-Approach Data ]
ABOUT SSD CREDITS/AWARDS PRIVACY/COPYRIGHT GLOSSARY LINKS
FirstGov 2021-Sep-23 07:52 UT
(server date/time)  
NASA Home Page
Site Manager:   Ryan S. Park
Webmaster  Alan B. Chamberlin